sat.trackr.live / text

‹ back to catalog

STARLINK-3586

NORAD 51795 · 2022-017AD

PAYLOAD ACTIVE UNKNOWN

§ Identity

Operator
Country
US
Launch date
2022-02-25
Launch site
AFWTR
Launch vehicle
Mass (kg)
RCS (m²)

Purposes: comms

External: N2YO · Heavens-Above · Gunter

§ Orbital elements

Epoch: 2026-09-20T01:40:35.734656Z

Period
93.85 min
Inclination
53.1600°
Eccentricity
0.0001221
Mean motion
15.34392435 rev/d
Perigee alt
461.9 km
Apogee alt
463.6 km
Semi-major
6,840.9 km
B*
3.2488e-5
RAAN
181.3854°
Arg perigee
91.5840°
Mean anomaly
268.5302°
Rev number
25,347

§ Raw data

STARLINK-35861 51795U 22017AD  26263.06985804  .00000721  00000+0  32488-4 0  99962 51795  53.1600 181.3854 0001221  91.5840 268.5302 15.34392435253473

JSON: /api/v1/satellites/51795 · /tle

For live sub-satellite position, see the globe view (requires WebGL).

§ Visibility from observer

Set your observer location to see the next 7 days of passes ≥ 10°. The values pass through the URL so the page stays shareable.

No JS? Fill the form by hand. The geolocation button needs JavaScript.